TimeCST,TemperatureF,Dew PointF,Humidity,Sea Level PressureIn,VisibilityMPH,Wind Direction,Wind SpeedMPH,Gust SpeedMPH,PrecipitationIn,Events,Conditions,WindDirDegrees,DateUTC
12:54 AM,21.0,15.1,78,30.22,10.0,NNW,11.5,-,0.00,,Overcast,340,2012-12-27 06:54:00
1:54 AM,21.0,14.0,74,30.23,10.0,NNW,8.1,-,N/A,,Overcast,330,2012-12-27 07:54:00
2:54 AM,21.0,15.1,78,30.23,10.0,North,8.1,-,N/A,,Overcast,350,2012-12-27 08:54:00
3:54 AM,21.0,15.1,78,30.23,10.0,NNW,8.1,-,N/A,,Overcast,340,2012-12-27 09:54:00
4:54 AM,21.0,15.1,78,30.24,10.0,North,10.4,-,N/A,,Overcast,350,2012-12-27 10:54:00
5:54 AM,21.0,14.0,74,30.25,10.0,North,11.5,-,N/A,,Overcast,10,2012-12-27 11:54:00
6:54 AM,19.9,12.9,74,30.25,10.0,North,10.4,-,N/A,,Overcast,350,2012-12-27 12:54:00
7:54 AM,19.9,14.0,78,30.25,10.0,North,10.4,-,N/A,,Overcast,350,2012-12-27 13:54:00
8:54 AM,19.9,14.0,78,30.26,10.0,North,6.9,-,N/A,,Overcast,350,2012-12-27 14:54:00
9:54 AM,21.0,14.0,74,30.27,10.0,North,9.2,-,N/A,,Overcast,360,2012-12-27 15:54:00
10:54 AM,21.0,14.0,74,30.25,10.0,North,9.2,-,N/A,,Overcast,350,2012-12-27 16:54:00
11:54 AM,21.0,12.9,71,30.23,10.0,North,8.1,-,N/A,,Overcast,360,2012-12-27 17:54:00
12:54 PM,21.9,12.9,68,30.21,10.0,North,10.4,-,N/A,,Overcast,350,2012-12-27 18:54:00
1:54 PM,21.9,12.9,68,30.20,10.0,North,5.8,-,N/A,,Overcast,10,2012-12-27 19:54:00
2:54 PM,21.9,12.9,68,30.22,10.0,North,8.1,-,N/A,,Overcast,350,2012-12-27 20:54:00
3:54 PM,21.0,12.9,71,30.22,10.0,North,5.8,-,N/A,,Overcast,10,2012-12-27 21:54:00
4:54 PM,21.0,12.9,71,30.22,10.0,NNW,6.9,-,N/A,,Overcast,340,2012-12-27 22:54:00
5:54 PM,21.0,14.0,74,30.23,10.0,North,3.5,-,N/A,,Overcast,360,2012-12-27 23:54:00
6:54 PM,21.0,14.0,74,30.23,10.0,ENE,3.5,-,N/A,,Overcast,60,2012-12-28 00:54:00
7:54 PM,19.9,14.0,78,30.24,10.0,Calm,Calm,-,N/A,,Overcast,0,2012-12-28 01:54:00
8:54 PM,19.9,12.9,74,30.20,10.0,NE,3.5,-,N/A,,Overcast,50,2012-12-28 02:54:00
9:54 PM,19.9,14.0,78,30.19,10.0,NNW,3.5,-,N/A,,Overcast,340,2012-12-28 03:54:00
10:20 PM,19.4,14.0,80,30.13,10.0,NW,4.6,-,N/A,,Overcast,310,2012-12-28 04:20:00
10:54 PM,19.9,15.1,81,30.19,10.0,NW,4.6,-,N/A,,Overcast,320,2012-12-28 04:54:00
11:54 PM,19.0,15.1,85,30.18,10.0,NNW,5.8,-,N/A,,Overcast,330,2012-12-28 05:54:00